EW9788 Palm Harbor FL US current weather conditions

sailwx.info

Wind from 357 at 5 knots

Air temperature 16.7° C
Dewpoint 10.5° C

Last reported at 2019-Mar-22 06:03 UTC.
Time now 2019-Mar-22 06:26 UTC

Location: N 28°04' W 082°44'.
View on Google Maps.

See reports from other nearby stations

  
Tides and Currents Weather Stations Pressure Air Temp Water Temp Dewpoint Dewpoint Depression Visibility Wind Speed Wind Dir Waves Ship Positions
date/time (UTC)wind fromknots sea level pressurealtimeterstation pressurevisibilityair tempwater tempwave heightnotes
2019-Mar-22 06:03 357 5 16.7
2019-Mar-22 05:53 006 5 16.7
2019-Mar-22 05:45 354 5 16.7
2019-Mar-22 05:33 360 6 16.7
2019-Mar-22 05:23 336 6 16.7
2019-Mar-22 05:15 003 5 16.7
2019-Mar-22 05:03 340 5 16.7
2019-Mar-22 04:53 335 5 16.7
2019-Mar-22 04:45 357 4 16.7
2019-Mar-22 04:34 288 3 16.7
2019-Mar-22 04:23 328 4 16.7
2019-Mar-22 04:16 337 4 16.7
2019-Mar-22 04:13 353 4 16.7
2019-Mar-22 04:03 298 5 16.7
2019-Mar-22 03:53 292 5 16.7
2019-Mar-22 03:46 302 5 16.7
2019-Mar-22 03:43 337 5 16.7
2019-Mar-22 03:34 304 5 16.7
2019-Mar-22 03:23 294 6 17.2
2019-Mar-22 03:16 301 6 16.7
2019-Mar-22 03:13 323 5 17.2
2019-Mar-22 03:03 346 6 17.2
2019-Mar-22 02:54 342 5 17.2
2019-Mar-22 02:46 311 4 16.7
2019-Mar-22 02:43 301 4 17.2
2019-Mar-22 02:34 350 6 17.2
2019-Mar-22 02:23 306 4 17.2
2019-Mar-22 02:16 339 5 17.2
2019-Mar-22 02:13 337 5 17.2
2019-Mar-22 02:03 360 5 17.2
2019-Mar-22 01:53 309 6 17.2
2019-Mar-22 01:46 320 5 17.2
2019-Mar-22 01:43 339 5 17.8
2019-Mar-22 01:33 291 4 17.8
2019-Mar-22 01:23 304 3 17.8
2019-Mar-22 01:13 291 6 17.8
2019-Mar-22 01:03 281 5 17.8
2019-Mar-22 00:53 346 5 17.8
2019-Mar-22 00:45 309 5 17.8
2019-Mar-22 00:33 336 6 18.3
2019-Mar-22 00:23 264 5 18.3
2019-Mar-22 00:17 350 5 18.3
2019-Mar-22 00:13 349 4 18.3
2019-Mar-22 00:04 296 5 18.3
2019-Mar-21 23:53 282 4 18.9
2019-Mar-21 23:47 311 4 18.3
2019-Mar-21 23:43 320 4 18.9
2019-Mar-21 23:34 313 5 18.9
2019-Mar-21 23:30 328 6 18.9
2019-Mar-21 23:24 282 5 18.9
2019-Mar-21 23:16 315 5 18.9
2019-Mar-21 23:13 291 5 18.9
2019-Mar-21 23:03 301 6 18.9
2019-Mar-21 23:00 277 6 18.9
2019-Mar-21 22:54 305 6 19.4
2019-Mar-21 22:47 256 6 18.9
2019-Mar-21 22:43 287 5 19.4
2019-Mar-21 22:33 285 6 19.4
2019-Mar-21 22:23 246 4 19.4
2019-Mar-21 22:17 274 4 19.4
2019-Mar-21 22:13 257 5 20.0
2019-Mar-21 22:04 349 4 20.0
2019-Mar-21 21:53 344 5 20.0
2019-Mar-21 21:46 298 6 20.0
2019-Mar-21 21:43 277 5 20.0
2019-Mar-21 21:34 326 6 20.0
2019-Mar-21 21:23 243 6 20.0
2019-Mar-21 21:16 309 5 20.6
2019-Mar-21 21:13 289 5 20.6
2019-Mar-21 21:03 309 6 20.6
2019-Mar-21 20:53 291 5 20.6
2019-Mar-21 20:45 306 6 20.0
2019-Mar-21 20:44 360 6 20.6
2019-Mar-21 20:33 265 6 20.0
2019-Mar-21 20:30 248 6 20.0
2019-Mar-21 20:24 343 6 20.6
2019-Mar-21 20:16 301 5 20.0
2019-Mar-21 20:13 288 4 20.6
2019-Mar-21 20:03 315 6 20.0
2019-Mar-21 19:54 346 5 20.6
2019-Mar-21 19:46 318 6 20.6
2019-Mar-21 19:43 268 6 20.6
2019-Mar-21 19:33 291 5 20.6
2019-Mar-21 19:23 360 6 20.0
2019-Mar-21 19:16 268 6 20.0
2019-Mar-21 19:13 313 6 20.6
2019-Mar-21 19:04 265 6 20.0
2019-Mar-21 18:53 004 5 20.6
2019-Mar-21 18:45 270 4 20.6
2019-Mar-21 18:33 339 6 20.0
2019-Mar-21 18:23 357 6 20.6
2019-Mar-21 18:18 313 6 20.0
2019-Mar-21 18:13 277 6 20.0
2019-Mar-21 18:03 350 5 20.6
2019-Mar-21 18:00 336 5 20.0
2019-Mar-21 17:54 302 6 20.0
2019-Mar-21 17:46 340 6 19.4
2019-Mar-21 17:43 333 6 20.0
2019-Mar-21 17:33 342 6 20.0
2019-Mar-21 17:30 19.4
2019-Mar-21 17:24 316 6 20.0
2019-Mar-21 17:16 349 7 19.4
2019-Mar-21 17:13 335 6 20.0
2019-Mar-21 17:03 346 5 20.0
2019-Mar-21 17:00 332 5 20.0
2019-Mar-21 16:54 253 6 20.0
2019-Mar-21 16:49 322 6 19.4
2019-Mar-21 16:43 336 5 20.0
2019-Mar-21 16:34 354 6 19.4
2019-Mar-21 16:23 360 5 19.4
2019-Mar-21 16:16 328 4 19.4
2019-Mar-21 16:13 332 5 20.0
2019-Mar-21 16:03 340 5 19.4
2019-Mar-21 15:53 267 5 19.4
2019-Mar-21 15:47 322 4 19.4
2019-Mar-21 15:43 020 4 19.4
2019-Mar-21 15:34 349 4 19.4
2019-Mar-21 15:23 291 4 19.4
2019-Mar-21 15:16 013 3 18.9
2019-Mar-21 15:13 359 3 18.9
2019-Mar-21 15:04 350 5 18.9
2019-Mar-21 14:53 335 5 18.9
2019-Mar-21 14:46 349 4 18.3
2019-Mar-21 14:43 275 4 18.9
2019-Mar-21 14:34 344 2 18.9
2019-Mar-21 14:23 357 2 18.3
2019-Mar-21 14:16 329 2 17.8
2019-Mar-21 14:13 343 2 17.8
2019-Mar-21 14:04 340 0 17.8
2019-Mar-21 13:53 360 1 17.8
2019-Mar-21 13:47 344 1 17.2
2019-Mar-21 13:43 017 1 17.2
2019-Mar-21 13:33 340 2 16.7
2019-Mar-21 13:23 343 2 16.7
2019-Mar-21 13:14 032 0 16.7
2019-Mar-21 13:03 030 2 16.1
2019-Mar-21 13:00 333 2 15.6
2019-Mar-21 12:54 342 2 16.1
2019-Mar-21 12:48 353 2 15.6
2019-Mar-21 12:43 344 1 15.6
2019-Mar-21 12:34 347 1 15.6
2019-Mar-21 12:30 353 1 15.6
2019-Mar-21 12:23 357 1 15.6
2019-Mar-21 12:17 329 1 15.0
2019-Mar-21 12:13 342 0 15.0
2019-Mar-21 12:03 360 0 15.6
2019-Mar-21 11:53 360 0 15.6
2019-Mar-21 11:45 15.0
2019-Mar-21 11:33 350 1 15.6
2019-Mar-21 11:23 350 1 15.6
2019-Mar-21 11:13 337 1 15.6
2019-Mar-21 11:03 347 1 15.6
2019-Mar-21 10:54 333 0 15.0
2019-Mar-21 10:46 357 14.4
2019-Mar-21 10:43 359 14.4
2019-Mar-21 10:33 357 14.4
2019-Mar-21 10:30 359 13.9
2019-Mar-21 10:24 359 0 14.4
2019-Mar-21 10:16 359 13.9
2019-Mar-21 10:13 359 14.4
2019-Mar-21 10:04 357 14.4
2019-Mar-21 09:53 357 14.4
2019-Mar-21 09:46 359 14.4
2019-Mar-21 09:43 359 14.4
2019-Mar-21 09:34 001 0 14.4
2019-Mar-21 09:23 001 0 14.4
2019-Mar-21 09:15 001 13.9
2019-Mar-21 09:03 001 15.0
2019-Mar-21 08:53 001 15.6
2019-Mar-21 08:43 001 1 15.6
2019-Mar-21 08:33 349 0 15.6
2019-Mar-21 08:23 332 0 16.1
2019-Mar-21 08:16 325 0 15.6
2019-Mar-21 08:13 337 0 16.1
2019-Mar-21 08:03 337 0 15.6
2019-Mar-21 07:53 337 15.6
2019-Mar-21 07:46 337 0 15.6
2019-Mar-21 07:43 337 0 15.6
2019-Mar-21 07:34 347 0 15.6
2019-Mar-21 07:23 344 15.6
2019-Mar-21 07:15 15.0
2019-Mar-21 07:03 360 15.0
2019-Mar-21 06:53 360 15.0
2019-Mar-21 06:46 15.6
2019-Mar-21 06:43 360 15.6
2019-Mar-21 06:33 360 16.1
2019-Mar-21 06:23 360 16.1
2019-Mar-21 06:15 16.1
2019-Mar-21 06:03 360 16.7
2019-Mar-21 05:53 360 0 17.2
2019-Mar-21 05:45 347 1 16.7
2019-Mar-21 05:44 354 0 17.2
2019-Mar-21 05:33 360 0 17.2
2019-Mar-21 05:23 360 0 17.2
2019-Mar-21 05:15 347 0 17.2
2019-Mar-21 05:14 347 0 17.2
2019-Mar-21 05:03 360 0 17.2
2019-Mar-21 04:53 360 0 17.8
2019-Mar-21 04:45 344 0 17.2
2019-Mar-21 04:44 344 0 17.8
2019-Mar-21 04:33 347 0 17.8
2019-Mar-21 04:23 004 0 17.8
2019-Mar-21 04:15 018 0 17.8
2019-Mar-21 04:03 023 0 17.8
2019-Mar-21 03:53 356 1 17.8
2019-Mar-21 03:45 342 1 17.8
2019-Mar-21 03:44 332 1 18.3
2019-Mar-21 03:34 360 0 18.3
2019-Mar-21 03:23 354 1 18.3
2019-Mar-21 03:18 356 1 17.8
2019-Mar-21 03:13 344 1 18.3
2019-Mar-21 03:03 360 2 18.3
2019-Mar-21 02:53 350 1 18.3
2019-Mar-21 02:46 343 1 17.8
2019-Mar-21 02:43 337 1 18.3
2019-Mar-21 02:34 360 1 18.3
2019-Mar-21 02:23 352 1 18.3
2019-Mar-21 02:17 008 1 17.8
2019-Mar-21 02:13 353 1 18.3
2019-Mar-21 02:03 360 2 18.3
2019-Mar-21 01:53 352 2 18.3
2019-Mar-21 01:45 357 3 18.3
2019-Mar-21 01:44 353 3 18.3
2019-Mar-21 01:33 346 2 18.3
2019-Mar-21 01:30 357 2 18.3
2019-Mar-21 01:24 016 2 18.3
2019-Mar-21 01:16 18.3
2019-Mar-21 01:13 360 2 18.9
2019-Mar-21 01:03 041 1 18.9
2019-Mar-21 01:00 336 1 18.3
2019-Mar-21 00:54 360 1 18.9
2019-Mar-21 00:46 315 1 18.3
2019-Mar-21 00:43 008 1 18.9
2019-Mar-21 00:34 353 2 18.9
2019-Mar-21 00:23 021 2 18.9
2019-Mar-21 00:15 357 1 18.3
2019-Mar-21 00:03 346 2 18.9
2019-Mar-20 23:53 013 3 18.9
2019-Mar-20 23:45 330 3 18.9
2019-Mar-20 23:33 031 5 19.4
2019-Mar-20 23:30 001 4 18.9
2019-Mar-20 23:24 339 4 19.4
2019-Mar-20 23:18 328 5 19.4
2019-Mar-20 23:13 319 5 20.0
2019-Mar-20 23:03 329 3 20.0
2019-Mar-20 23:00 013 3 20.0
2019-Mar-20 22:54 340 4 20.0
2019-Mar-20 22:46 356 4 20.0
2019-Mar-20 22:43 333 3 20.0
2019-Mar-20 22:34 016 5 20.6
2019-Mar-20 22:23 326 4 20.6
2019-Mar-20 22:16 322 5 20.0
2019-Mar-20 22:13 333 5 20.6
2019-Mar-20 22:03 337 6 21.1
2019-Mar-20 21:53 004 5 21.1
2019-Mar-20 21:47 21.1
2019-Mar-20 21:43 007 6 21.1
2019-Mar-20 21:34 007 6 21.1
2019-Mar-20 21:23 304 5 21.7
2019-Mar-20 21:15 003 5 21.7
2019-Mar-20 21:03 056 6 21.7
2019-Mar-20 20:53 339 5 22.2
2019-Mar-20 20:43 349 5 22.2
2019-Mar-20 20:33 007 5 22.2
2019-Mar-20 20:30 332 5 21.7
2019-Mar-20 20:24 306 6 22.2
2019-Mar-20 20:18 336 4 21.7
2019-Mar-20 20:13 322 4 22.2
2019-Mar-20 20:03 354 6 21.7
2019-Mar-20 19:53 337 5 22.2
2019-Mar-20 19:47 332 4 22.2
2019-Mar-20 19:43 018 4 22.2
2019-Mar-20 19:33 344 2 22.8
2019-Mar-20 19:23 329 3 22.2
2019-Mar-20 19:16 349 2 22.2
2019-Mar-20 19:13 342 3 22.2
2019-Mar-20 19:04 342 4 22.2
2019-Mar-20 18:53 353 3 22.2
2019-Mar-20 18:47 035 3 21.1
2019-Mar-20 18:43 347 3 21.7
2019-Mar-20 18:34 014 4 21.1
2019-Mar-20 18:23 330 6 21.1
2019-Mar-20 18:15 350 5 20.6
2019-Mar-20 18:03 339 3 21.1
2019-Mar-20 18:00 076 3 21.1
2019-Mar-20 17:54 065 2 21.1
2019-Mar-20 17:46 359 2 21.1
2019-Mar-20 17:43 360 2 21.1
2019-Mar-20 17:34 020 1 21.7
2019-Mar-20 17:23 013 2 21.1
2019-Mar-20 17:16 041 3 20.6
2019-Mar-20 17:13 006 2 21.1
2019-Mar-20 17:03 010 3 21.1
2019-Mar-20 16:53 037 1 21.1
2019-Mar-20 16:46 003 2 21.1
2019-Mar-20 16:43 360 2 21.1
2019-Mar-20 16:33 072 1 21.1
2019-Mar-20 16:23 003 1 20.6
2019-Mar-20 16:16 030 2 20.6
2019-Mar-20 16:13 360 3 21.1
2019-Mar-20 16:03 096 2 21.1
2019-Mar-20 15:53 354 1 20.6
2019-Mar-20 15:45 082 2 19.4
2019-Mar-20 15:33 086 2 19.4
2019-Mar-20 15:23 075 1 19.4
2019-Mar-20 15:17 083 1 18.9
2019-Mar-20 15:13 104 1 18.9
2019-Mar-20 15:03 095 1 18.3
2019-Mar-20 14:53 082 2 18.3
2019-Mar-20 14:45 097 1 17.8
2019-Mar-20 14:33 354 2 17.8
2019-Mar-20 14:23 037 2 17.8
2019-Mar-20 14:17 089 2 17.2
2019-Mar-20 14:13 082 3 17.2
2019-Mar-20 14:03 059 2 17.8
2019-Mar-20 13:53 073 2 16.7
2019-Mar-20 13:47 054 1 16.1
2019-Mar-20 13:43 048 1 16.7
2019-Mar-20 13:34 109 1 16.7
2019-Mar-20 13:23 072 1 16.1
2019-Mar-20 13:16 032 1 15.6
2019-Mar-20 13:13 020 1 15.6
2019-Mar-20 13:04 079 1 15.6
2019-Mar-20 12:53 080 0 15.0
2019-Mar-20 12:46 353 0 15.0
2019-Mar-20 12:43 052 0 15.0
2019-Mar-20 12:34 080 0 15.0
2019-Mar-20 12:23 076 0 14.4
2019-Mar-20 12:17 034 0 13.9
2019-Mar-20 12:13 016 0 14.4
2019-Mar-20 12:04 062 0 13.9
2019-Mar-20 11:53 051 0 13.9
2019-Mar-20 11:45 044 0 13.9
2019-Mar-20 11:34 020 0 14.4
2019-Mar-20 11:23 059 0 13.9
2019-Mar-20 11:18 085 0 13.9
2019-Mar-20 11:14 079 0 13.9
2019-Mar-20 11:03 041 0 13.9
2019-Mar-20 11:00 010 0 13.9
2019-Mar-20 10:54 071 0 13.9
2019-Mar-20 10:47 103 0 13.9
2019-Mar-20 10:43 069 0 13.9
2019-Mar-20 10:33 065 0 13.9
2019-Mar-20 10:23 075 0 14.4
2019-Mar-20 10:16 016 1 13.9
2019-Mar-20 10:13 068 1 14.4
2019-Mar-20 10:04 001 1 14.4
2019-Mar-20 09:53 041 1 14.4
2019-Mar-20 09:46 017 1 13.9
2019-Mar-20 09:43 090 1 14.4
2019-Mar-20 09:33 024 1 14.4
2019-Mar-20 09:23 075 0 14.4
2019-Mar-20 09:16 088 1 14.4
2019-Mar-20 09:13 007 1 14.4
2019-Mar-20 09:03 102 0 14.4
2019-Mar-20 08:53 056 1 14.4
2019-Mar-20 08:46 066 1 14.4
2019-Mar-20 08:43 090 0 14.4
2019-Mar-20 08:33 011 1 14.4
2019-Mar-20 08:30 114 1 14.4
2019-Mar-20 08:24 054 0 14.4
2019-Mar-20 08:16 059 1 14.4
2019-Mar-20 08:13 058 1 14.4
2019-Mar-20 08:03 034 1 14.4
2019-Mar-20 07:53 013 1 14.4
2019-Mar-20 07:46 004 0 14.4
2019-Mar-20 07:43 085 0 14.4
2019-Mar-20 07:33 078 1 14.4
2019-Mar-20 07:30 032 1 14.4
2019-Mar-20 07:24 092 1 14.4
2019-Mar-20 07:17 071 1 14.4
2019-Mar-20 07:13 360 1 14.4
2019-Mar-20 07:03 035 1 14.4
2019-Mar-20 06:53 034 1 14.4
2019-Mar-20 06:43 061 1 14.4
2019-Mar-20 06:33 027 1 14.4
2019-Mar-20 06:30 096 1 14.4
2019-Mar-20 06:24 042 1 14.4
2019-Mar-20 06:16 011 1 14.4
2019-Mar-20 06:13 068 0 14.4
2019-Mar-20 06:03 130 2 14.4